| time (UTC) | temp F | wind direction | speed knots | gust knots | rain 1hr in | rain 24hr in | rain mn in | humidity % | barometer mb |
| 20260510181504 | 53 | 47 | 1.7 | 7.8 | 0.00 | 0.00 | 0.00 | 52 | 1016.0 |
| 20260510180004 | 53 | 33 | 3.5 | 8.7 | 0.00 | 0.00 | 0.00 | 52 | 1015.9 |
| 20260510174504 | 53 | 57 | 2.6 | 10.4 | 0.00 | 0.00 | 0.00 | 51 | 1016.1 |
| 20260510173004 | 54 | 63 | 4.3 | 12.2 | 0.00 | 0.00 | 0.00 | 52 | 1016.1 |
| 20260510171504 | 54 | 71 | 2.6 | 8.7 | 0.00 | 0.00 | 0.00 | 52 | 1016.2 |
| 20260510170004 | 54 | 25 | 5.2 | 13.9 | 0.00 | 0.00 | 0.00 | 50 | 1016.4 |
| 20260510164504 | 55 | 57 | 4.3 | 12.2 | 0.00 | 0.00 | 0.00 | 52 | 1016.6 |
| 20260510161504 | 55 | 4 | 3.5 | 10.4 | 0.00 | 0.00 | 0.00 | 53 | 1016.8 |
| 20260510160004 | 56 | 58 | 4.3 | 10.4 | 0.00 | 0.00 | 0.00 | 51 | 1016.8 |
| 20260510154504 | 56 | 2 | 5.2 | 10.4 | 0.00 | 0.00 | 0.00 | 53 | 1016.8 |
| 20260510153004 | 56 | 25 | 2.6 | 8.7 | 0.00 | 0.00 | 0.00 | 54 | 1017.0 |
| 20260510151504 | 56 | 4 | 4.3 | 12.2 | 0.00 | 0.00 | 0.00 | 53 | 1017.1 |
| 20260510150003 | 56 | 12 | 4.3 | 13.0 | 0.00 | 0.00 | 0.00 | 52 | 1017.3 |
| 20260510144504 | 56 | 1 | 2.6 | 10.4 | 0.00 | 0.00 | 0.00 | 56 | 1017.3 |
| 20260510143004 | 56 | 24 | 4.3 | 11.3 | 0.00 | 0.00 | 0.00 | 55 | 1017.4 |
| 20260510141504 | 56 | 79 | 4.3 | 12.2 | 0.00 | 0.00 | 0.00 | 55 | 1017.5 |
| 20260510140005 | 56 | 24 | 4.3 | 11.3 | 0.00 | 0.00 | 0.00 | 56 | 1017.6 |
| 20260510134504 | 55 | 301 | 1.7 | 12.2 | 0.00 | 0.00 | 0.00 | 58 | 1017.5 |
| 20260510133004 | 55 | 64 | 3.5 | 7.8 | 0.00 | 0.00 | 0.00 | 57 | 1017.8 |
| 20260510131503 | 55 | 9 | 3.5 | 13.0 | 0.00 | 0.00 | 0.00 | 60 | 1017.8 |
| 20260510130004 | 56 | 353 | 4.3 | 12.2 | 0.00 | 0.00 | 0.00 | 59 | 1017.9 |
| 20260510124503 | 55 | 298 | 3.5 | 13.0 | 0.00 | 0.00 | 0.00 | 60 | 1018.1 |
| 20260510123003 | 54 | 26 | 4.3 | 10.4 | 0.00 | 0.00 | 0.00 | 62 | 1018.3 |
| 20260510121504 | 53 | 335 | 2.6 | 13.9 | 0.00 | 0.00 | 0.00 | 65 | 1018.5 |
| 20260510120004 | 53 | 359 | 4.3 | 13.0 | 0.00 | 0.00 | 0.00 | 66 | 1018.7 |
| 20260510114505 | 53 | 39 | 3.5 | 12.2 | 0.00 | 0.00 | 0.00 | 66 | 1018.8 |
| 20260510113004 | 53 | 59 | 3.5 | 15.6 | 0.00 | 0.00 | 0.00 | 67 | 1018.8 |
| 20260510111504 | 53 | 3 | 5.2 | 12.2 | 0.00 | 0.00 | 0.00 | 68 | 1019.0 |
| 20260510104504 | 52 | 12 | 5.2 | 12.2 | 0.00 | 0.00 | 0.00 | 71 | 1019.3 |
| 20260510103003 | 52 | 12 | 6.1 | 15.6 | 0.00 | 0.00 | 0.00 | 74 | 1019.3 |
| 20260510100004 | 52 | 4 | 4.3 | 13.0 | 0.00 | 0.00 | 0.00 | 76 | 1019.3 |
| 20260510094504 | 51 | 73 | 5.2 | 12.2 | 0.00 | 0.00 | 0.00 | 76 | 1019.4 |
| 20260510093004 | 51 | 28 | 4.3 | 11.3 | 0.00 | 0.00 | 0.00 | 78 | 1019.5 |
| 20260510091503 | 51 | 21 | 7.8 | 14.8 | 0.00 | 0.00 | 0.00 | 77 | 1019.5 |
| 20260510090003 | 51 | 25 | 3.5 | 13.0 | 0.00 | 0.00 | 0.00 | 77 | 1019.7 |
| 20260510081504 | 50 | 5 | 4.3 | 10.4 | 0.00 | 0.00 | 0.00 | 80 | 1019.7 |
| 20260510080005 | 49 | 27 | 4.3 | 12.2 | 0.00 | 0.00 | 0.00 | 81 | 1019.8 |
| 20260510074504 | 49 | 9 | 4.3 | 12.2 | 0.00 | 0.00 | 0.00 | 82 | 1019.9 |
| 20260510073004 | 48 | 356 | 2.6 | 10.4 | 0.00 | 0.00 | 0.00 | 83 | 1019.9 |
| 20260510070003 | 48 | 45 | 6.1 | 12.2 | 0.00 | 0.00 | 0.00 | 84 | 1019.7 |
| 20260510064503 | 49 | 334 | 3.5 | 10.4 | 0.00 | 0.00 | 0.00 | 84 | 1019.6 |
| 20260510063004 | 49 | 343 | 3.5 | 8.7 | 0.00 | 0.00 | 0.00 | 84 | 1019.4 |
| 20260510061504 | 49 | 31 | 4.3 | 8.7 | 0.00 | 0.00 | 0.00 | 85 | 1019.4 |
| 20260510060003 | 48 | 21 | 4.3 | 11.3 | 0.00 | 0.00 | 0.00 | 85 | 1019.4 |
| 20260510054504 | 48 | 22 | 4.3 | 11.3 | 0.00 | 0.00 | 0.00 | 85 | 1019.3 |
| 20260510051504 | 48 | 29 | 5.2 | 10.4 | 0.00 | 0.00 | 0.00 | 86 | 1019.4 |
| 20260510050004 | 48 | 355 | 3.5 | 12.2 | 0.00 | 0.00 | 0.00 | 87 | 1019.4 |
| 20260510044505 | 48 | 19 | 2.6 | 7.8 | 0.00 | 0.00 | 0.00 | 87 | 1019.5 |
| 20260510043004 | 48 | 23 | 3.5 | 8.7 | 0.00 | 0.00 | 0.00 | 88 | 1019.4 |
| 20260510040004 | 47 | 37 | 2.6 | 7.8 | 0.00 | 0.00 | 0.00 | 88 | 1019.4 |
| 20260510034504 | 48 | 2 | 3.5 | 7.8 | 0.00 | 0.00 | 0.00 | 88 | 1019.6 |
| 20260510033005 | 48 | 14 | 2.6 | 7.0 | 0.00 | 0.00 | 0.00 | 88 | 1019.7 |
| 20260510030004 | 48 | 14 | 3.5 | 8.7 | 0.00 | 0.00 | 0.00 | 87 | 1019.7 |
| 20260510024504 | 48 | 22 | 2.6 | 7.0 | 0.00 | 0.00 | 0.00 | 88 | 1019.8 |
| 20260510023004 | 48 | 29 | 2.6 | 10.4 | 0.00 | 0.00 | 0.00 | 88 | 1020.0 |
| 20260510021504 | 48 | 353 | 2.6 | 8.7 | 0.00 | 0.00 | 0.00 | 88 | 1020.1 |
| 20260510020004 | 48 | 28 | 3.5 | 10.4 | 0.00 | 0.00 | 0.00 | 88 | 1020.0 |
| 20260510014504 | 48 | 20 | 5.2 | 11.3 | 0.00 | 0.00 | 0.00 | 88 | 1019.8 |
| 20260510013005 | 48 | 44 | 2.6 | 7.8 | 0.00 | 0.00 | 0.00 | 87 | 1020.0 |
| 20260510011504 | 48 | 339 | 2.6 | 8.7 | 0.00 | 0.00 | 0.00 | 87 | 1019.9 |
| 20260510010004 | 48 | 21 | 2.6 | 11.3 | 0.00 | 0.00 | 0.00 | 87 | 1019.8 |
| 20260510004504 | 48 | 15 | 2.6 | 10.4 | 0.00 | 0.00 | 0.00 | 87 | 1019.7 |
| 20260510003005 | 48 | 343 | 2.6 | 10.4 | 0.00 | 0.00 | 0.00 | 87 | 1019.9 |
| 20260510001504 | 48 | 354 | 3.5 | 8.7 | 0.00 | 0.00 | 0.00 | 86 | 1020.1 |
| 20260510000004 | 48 | 352 | 2.6 | 8.7 | 0.00 | 0.00 | 0.00 | 85 | 1020.1 |
| 20260509234504 | 48 | 25 | 3.5 | 7.8 | 0.00 | 0.00 | 0.00 | 84 | 1020.0 |
| 20260509233004 | 48 | 358 | 2.6 | 6.1 | 0.00 | 0.00 | 0.00 | 81 | 1020.2 |
| 20260509230004 | 49 | 345 | 2.6 | 8.7 | 0.00 | 0.00 | 0.00 | 78 | 1020.3 |
| 20260509223004 | 50 | 14 | 1.7 | 6.1 | 0.00 | 0.00 | 0.00 | 75 | 1020.1 |
| 20260509221504 | 51 | 353 | 2.6 | 8.7 | 0.00 | 0.00 | 0.00 | 74 | 1020.0 |
| 20260509214504 | 52 | 11 | 1.7 | 7.0 | 0.00 | 0.00 | 0.00 | 65 | 1019.8 |
| 20260509213005 | 53 | 67 | 3.5 | 8.7 | 0.00 | 0.00 | 0.00 | 60 | 1019.7 |
| 20260509211504 | 53 | 326 | 2.6 | 8.7 | 0.00 | 0.00 | 0.00 | 61 | 1019.4 |
| 20260509210004 | 54 | 27 | 3.5 | 7.0 | 0.00 | 0.00 | 0.00 | 56 | 1019.1 |
| 20260509204504 | 56 | 18 | 2.6 | 7.0 | 0.00 | 0.00 | 0.00 | 51 | 1019.0 |
| 20260509203004 | 57 | 25 | 0.9 | 4.3 | 0.00 | 0.00 | 0.00 | 48 | 1018.9 |
| 20260509201504 | 57 | 28 | 1.7 | 5.2 | 0.00 | 0.00 | 0.00 | 46 | 1018.8 |
| 20260509200004 | 58 | 66 | 1.7 | 7.0 | 0.00 | 0.00 | 0.00 | 46 | 1018.6 |
| 20260509193004 | 60 | 62 | 1.7 | 8.7 | 0.00 | 0.00 | 0.00 | 47 | 1018.2 |
| 20260509191504 | 60 | 335 | 1.7 | 7.0 | 0.00 | 0.00 | 0.00 | 47 | 1018.1 |
| 20260509184503 | 62 | 29 | 3.5 | 11.3 | 0.00 | 0.00 | 0.00 | 46 | 1017.9 |